FW2486 Weather Reports


Display with metric or nautical units.
time (UTC)temp
F
wind
direction
speed
MPH
gust
MPH
rain 1hr
in
rain 24hr
in
rain mn
in
humidity
%
barometer
mb
20260510034533 59 286 0.0 3.0 0.00 0.00 0.00 65 1018.8
20260510031606 66 320 2.0 8.0 0.00 0.00 0.00 55 1018.6
20260510024615 67 315 0.0 2.0 0.00 0.00 0.00 56 1018.6
20260510021535 71 315 2.0 7.0 0.00 0.00 0.00 44 1018.5
20260510020115 73 310 3.0 5.0 0.00 0.00 0.00 39 1018.5
20260510014535 75 309 5.0 7.0 0.00 0.00 0.00 34 1018.7
20260510013030 74 315 2.0 7.0 0.00 0.00 0.00 35 1018.9
20260510011535 75 316 2.0 7.0 0.00 0.00 0.00 32 1018.9
20260510010034 77 312 4.0 9.0 0.00 0.00 0.00 29 1019.0
20260510004534 77 334 5.0 11.0 0.00 0.00 0.00 29 1019.1
20260510003034 77 331 4.0 14.0 0.00 0.00 0.00 30 1019.2
20260510001531 76 330 8.0 14.0 0.00 0.00 0.00 32 1019.3
20260510000035 75 321 6.0 13.0 0.00 0.00 0.00 33 1019.3
20260509234606 76 319 5.0 13.0 0.00 0.00 0.00 33 1019.5
20260509231608 76 322 8.0 22.0 0.00 0.00 0.00 32 1019.9
20260509230029 76 323 7.0 25.0 0.00 0.00 0.00 33 1020.1
20260509224607 76 325 9.0 18.0 0.00 0.00 0.00 34 1020.4
20260509223106 75 328 9.0 16.0 0.00 0.00 0.00 34 1020.7
20260509214535 74 339 9.0 18.0 0.00 0.00 0.00 40 1021.3
20260509213034 73 337 8.0 27.0 0.00 0.00 0.00 42 1021.5
20260509211532 72 333 6.0 17.0 0.00 0.00 0.00 43 1021.7
20260509210034 72 339 6.0 16.0 0.00 0.00 0.00 44 1021.9
20260509203031 71 324 6.0 15.0 0.00 0.00 0.00 47 1022.1
20260509201536 70 320 7.0 15.0 0.00 0.00 0.00 48 1022.4
20260509200144 69 335 8.0 19.0 0.00 0.00 0.00 50 1022.7
20260509194532 68 334 7.0 16.0 0.00 0.00 0.00 51 1022.9
20260509191534 67 328 7.0 14.0 0.00 0.00 0.00 50 1023.1
20260509190035 66 337 7.0 13.0 0.00 0.00 0.00 51 1023.3
20260509184535 65 339 6.0 13.0 0.00 0.00 0.00 51 1023.4
20260509181532 64 331 11.0 21.0 0.00 0.00 0.00 55 1023.7
20260509180034 63 337 9.0 32.0 0.00 0.00 0.00 58 1023.7
20260509174535 63 329 6.0 21.0 0.00 0.00 0.00 58 1023.8
20260509173036 61 322 7.0 16.0 0.00 0.00 0.00 60 1023.8
20260509171535 60 327 6.0 22.0 0.00 0.00 0.00 62 1024.0
20260509170037 59 337 9.0 52.0 0.00 0.00 0.00 64 1024.2
20260509164537 59 324 7.0 14.0 0.00 0.00 0.00 65 1024.3
20260509163037 59 334 5.0 12.0 0.00 0.00 0.00 59 1024.4
20260509160031 59 81 2.0 3.0 0.00 0.00 0.00 58 1024.6
20260509154536 57 103 3.0 5.0 0.00 0.00 0.00 61 1024.7
20260509153036 56 105 3.0 5.0 0.00 0.00 0.00 65 1024.7
20260509151536 53 116 3.0 4.0 0.00 0.00 0.00 70 1024.8
20260509150035 50 144 4.0 7.0 0.00 0.00 0.00 80 1024.8
20260509144534 47 127 3.0 4.0 0.00 0.00 0.00 89 1024.8
20260509143034 44 125 2.0 5.0 0.00 0.00 0.00 93 1024.8
20260509140031 38 113 3.0 21.0 0.00 0.00 0.00 93 1024.5
20260509134534 38 117 33.0 205.0 0.00 0.00 0.00 93 1024.6
20260509133107 38 139 8.0 104.0 0.00 0.00 0.00 93 1024.5
20260509131535 37 154 3.0 58.0 0.00 0.00 0.00 91 1024.5
20260509130034 38 128 9.0 116.0 0.00 0.00 0.00 91 1024.3
20260509124531 39 145 1.0 25.0 0.00 0.00 0.00 90 1024.2
20260509123034 39 115 9.0 64.0 0.00 0.00 0.00 89 1024.2
20260509120033 40 135 0.0 4.0 0.00 0.00 0.00 86 1024.1
20260509114532 42 145 5.0 125.0 0.00 0.00 0.00 83 1024.0
20260509113030 44 222 0.0 2.0 0.00 0.00 0.00 80 1024.1
20260509111532 46 163 3.0 10.0 0.00 0.00 0.00 79 1024.2
20260509110035 47 156 4.0 8.0 0.00 0.00 0.00 78 1024.2
20260509104535 48 148 6.0 10.0 0.00 0.00 0.00 78 1024.2
20260509103035 48 149 6.0 18.0 0.00 0.00 0.00 79 1024.2
20260509101535 47 158 6.0 13.0 0.00 2.39 0.00 79 1024.3
20260509100035 48 142 4.0 10.0 0.00 2.39 0.00 79 1024.4
20260509094532 49 144 5.0 9.0 0.00 2.39 0.00 78 1024.5
20260509090142 51 143 4.0 7.0 0.00 2.39 0.00 76 1024.7
20260509084531 51 146 5.0 9.0 0.00 2.39 0.00 76 1024.9
20260509083034 51 141 6.0 10.0 0.00 2.39 0.00 76 1025.1
20260509081532 51 139 6.0 11.0 0.00 2.39 0.00 75 1025.4
20260509074532 51 145 5.0 13.0 0.00 2.39 0.00 74 1025.5
20260509071536 53 196 3.0 6.0 0.00 2.39 0.00 72 1025.7
20260509070033 54 181 3.0 7.0 0.00 2.39 0.00 71 1025.8
20260509064535 54 172 3.0 4.0 0.00 2.39 2.39 70 1025.8
20260509063035 55 152 3.0 12.0 0.00 2.39 2.39 69 1025.8
20260509060036 53 152 6.0 14.0 0.00 2.39 2.39 71 1025.6
20260509054641 50 120 4.0 7.0 0.00 2.39 2.39 74 1025.5
20260509051607 51 120 4.0 7.0 0.00 2.39 2.39 72 1025.4
20260509050032 53 152 4.0 4.0 0.00 2.39 2.39 67 1025.4
20260509044531 54 161 3.0 5.0 0.00 2.39 2.39 66 1025.3
20260509043032 54 169 4.0 8.0 0.00 2.39 2.39 65 1025.2
20260509041536 55 140 3.0 6.0 0.00 2.39 2.39 64 1024.9
20260509040034 55 151 4.0 7.0 0.00 2.39 2.39 62 1024.7